Weather History for KGCC - August, 2012

Change the Weather History Date:

Monday, August 13, 2012

  Actual Average Record
Temperature  
Mean Temperature 73 °F 70 °F  
Max Temperature 87 °F 87 °F - ()
Min Temperature 59 °F 54 °F - ()
Degree Days  
Heating Degree Days 0 1  
Month to date heating degree days 11 10  
Since 1 June heating degree days 73 171  
Since 1 July heating degree days 13 29  
Cooling Degree Days 8 6  
Month to date cooling degree days 107 93  
Year to date cooling degree days 634 375  
Since 1 June cooling degree days 624 367  
Growing Degree Days 22 (Base 50)    
Moisture  
Dew Point 48 °F    
Average Humidity 48    
Maximum Humidity 72    
Minimum Humidity 23    
Precipitation  
Precipitation 0.03 in 0.03 in - ()
Month to date precipitation 0.23 0.48  
Year to date precipitation 7.57 10.01  
Sea Level Pressure  
Sea Level Pressure 29.98 in    
Wind  
Wind Speed 16 mph (SSE)    
Max Wind Speed 30 mph    
Max Gust Speed 37 mph    
Visibility 10 miles    
Events Rain , Thunderstorm    
T = Trace of Precipitation, MM = Missing Value Source: NWS Daily Summary

Daily Weather History Graph

Daily Weather History Graph

Search for Another Location

Airport or City:

Trip Planner

Search our weather history database for the weather conditions in past years. The results will help you decide how hot, cold, wet, or windy it might be!

Date:

Astronomy

Aug. 13, 2012 Rise Set
Actual Time 6:03 AM MDT 8:09 PM MDT
Civil Twilight 5:31 AM MDT 8:40 PM MDT
Nautical Twilight 4:52 AM MDT 9:19 PM MDT
Astronomical Twilight 4:09 AM MDT 10:02 PM MDT
Moon 2:04 AM MDT (8/13) 5:27 PM MDT (8/13)
Length of Visible Light 15h 09m
Length of Day
14h 05m
Waning Crescent, 16% of the Moon is Illuminated
Aug 13
Waning Crescent
Aug 17
New
Aug 24
First Quarter
Aug 31
Full
Sep 8
Last Quarter

Hourly Weather History & Observations

Time (MDT) Temp. Dew Point Humidity Pressure Visibility Wind Dir Wind Speed Gust Speed Precip Events Conditions
12:23 AM 66.2 °F 48.2 °F 52% 30.20 in 10.0 mi SE 11.5 mph - N/A   Mostly Cloudy
12:53 AM 63.0 °F 53.1 °F 70% 30.06 in 10.0 mi SE 12.7 mph - 0.00 in Rain Light Rain
1:45 AM 64.4 °F 51.8 °F 64% 30.20 in 10.0 mi SSE 12.7 mph - 0.01 in Thunderstorm Overcast
1:53 AM 64.9 °F 50.0 °F 58% 30.06 in 10.0 mi SSE 13.8 mph - 0.01 in Thunderstorm Overcast
2:40 AM 62.6 °F 51.8 °F 68% 30.17 in 10.0 mi South 18.4 mph - 0.00 in   Mostly Cloudy
2:51 AM 64.4 °F 51.8 °F 64% 30.17 in 10.0 mi South 18.4 mph - 0.00 in Thunderstorm Mostly Cloudy
2:53 AM 64.0 °F 52.0 °F 65% 30.04 in 9.0 mi South 18.4 mph - 0.00 in Thunderstorm Mostly Cloudy
3:06 AM 62.6 °F 53.6 °F 72% 30.20 in 10.0 mi South 17.3 mph 27.6 mph 0.03 in Rain Light Rain
3:53 AM 63.0 °F 53.1 °F 70% 30.05 in 10.0 mi SE 9.2 mph - 0.03 in   Partly Cloudy
4:53 AM 62.1 °F 51.1 °F 67% 30.00 in 10.0 mi South 18.4 mph - N/A   Clear
5:53 AM 61.0 °F 51.1 °F 70% 30.01 in 10.0 mi South 17.3 mph 25.3 mph N/A   Clear
6:53 AM 62.1 °F 51.1 °F 67% 30.02 in 10.0 mi South 16.1 mph 24.2 mph N/A   Clear
7:53 AM 64.9 °F 51.1 °F 61% 30.03 in 10.0 mi South 13.8 mph - N/A   Clear
8:53 AM 69.1 °F 50.0 °F 51% 30.01 in 10.0 mi South 21.9 mph 29.9 mph N/A   Clear
9:53 AM 73.9 °F 48.9 °F 41% 29.99 in 10.0 mi SSE 20.7 mph 26.5 mph N/A   Clear
10:53 AM 77.0 °F 46.9 °F 34% 29.99 in 10.0 mi SSE 27.6 mph 31.1 mph N/A   Clear
11:53 AM 78.1 °F 46.0 °F 32% 29.94 in - South 23.0 mph 31.1 mph N/A   Clear
12:53 PM 80.1 °F 45.0 °F 29% 29.92 in - SE 17.3 mph 24.2 mph N/A   Clear
1:53 PM 82.9 °F 44.1 °F 25% 29.89 in - SSE 18.4 mph 24.2 mph N/A   Clear
2:53 PM 84.9 °F 43.0 °F 23% 29.87 in - SE 19.6 mph 26.5 mph N/A   Clear
3:53 PM 82.9 °F 42.1 °F 24% 29.86 in 10.0 mi South 17.3 mph 21.9 mph N/A   Clear
4:53 PM 82.9 °F 43.0 °F 24% 29.85 in 10.0 mi SSE 11.5 mph - N/A   Clear
5:53 PM 81.0 °F 44.1 °F 27% 29.83 in 10.0 mi SSE 11.5 mph - N/A   Clear
6:53 PM 82.0 °F 42.1 °F 24% 29.80 in 10.0 mi SSE 16.1 mph - N/A   Clear
7:53 PM 73.0 °F 39.0 °F 29% 29.80 in 10.0 mi SSW 9.2 mph - N/A   Clear
8:53 PM 72.0 °F 41.0 °F 33% 29.83 in 10.0 mi SSW 12.7 mph - N/A   Clear
9:53 PM 72.0 °F 41.0 °F 33% 29.88 in 10.0 mi NE 13.8 mph 19.6 mph N/A   Clear
10:53 PM 64.0 °F 46.0 °F 52% 29.89 in 10.0 mi SE 8.1 mph - N/A   Clear
11:53 PM 63.0 °F 46.9 °F 56% 29.91 in 10.0 mi ESE 16.1 mph 20.7 mph N/A   Clear